Location: Newark
(7.0858°N, 171.3717°E)
Time: 02:18:20
(UTC+00:00)

Transit 2A - Pass Details

Date: 05 December 2020
Orbit: 598 x 960 km, 66.7° (Epoch: 20 January)

Event Time Altitude Azimuth Distance (km) Brightness Sun altitude
Rises 14:18:20 0° 347° (NNW) 2,961 - -58.8°
Reaches altitude 10° 14:20:44 10° 353° (N) 2,010 - -58.3°
Maximum altitude 14:25:05 52° 69° (ENE) 761 - -57.3°
Drops below altitude 10° 14:29:17 10° 146° (SE) 1,932 - -56.4°
Sets 14:31:32 0° 151° (SSE) 2,833 - -56.0°
